Torna al catalogo

STARLINK-31738

AttivoComunicazioniVLEO
NORAD 59535·PAYLOAD·🇺🇸 United States

Lanciato Apr 18, 2024 da Cape Canaveral Space Force Station

Loading…

Prossimi Passaggi (prossime 24 ore)

TLE

AggiornatoSource: CelesTrak SupGP

Epoca: Sep 15, 2026, 03:10 UTC

1 59535C 24074B   26258.13243056  .00042423  00000+0  15370-2 0  2581
2 59535  43.0023 349.8249 0001498 269.6574 335.6478 15.27549052    18

Traccia STARLINK-31738 in tempo reale con AllMySat

Download on the App Store